Regional Weather Roundup
Issued by NWS San Angelo, TX

Home | Current Version | Previous Version | Text Only | Print | Product List | Glossary On
Versions: 1 2 3 4 5 6 7 8 9 10 11 12 13 14 15 16 17 18 19 20 21 22 23 24 25 26 27 28 29 30 31 32 33 34 35 36 37 38 39 40 41 42 43 44 45 46 47 48 49 50
000
ASUS44 KSJT 251910
RWRSJT
WEST CENTRAL TEXAS REGIONAL WEATHER ROUNDUP
NATIONAL WEATHER SERVICE SAN ANGELO TX
200 PM CDT TUE JUL 25 2017

NOTE: "FAIR" INDICATES FEW OR NO CLOUDS BELOW 12,000 FEET WITH NO
SIGNIFICANT WEATHER AND/OR OBSTRUCTIONS TO VISIBILITY.

TXZ049-054-064>066-071>073-076>078-098-099-113-114-127-128-139-140-
154-155-168>170-252000
...LOCATIONS ACROSS WEST CENTRAL TEXAS...

CITY           SKY/WX    TMP DP  RH WIND       PRES   REMARKS
SAN ANGELO     MOSUNNY   96  65  35 S8G18     30.07F
ABILENE        MOSUNNY   93  66  40 VRB7G21   30.07F
DYESS AFB      MOSUNNY   96  67  37 S6G21     30.05F
JUNCTION       MOSUNNY   89  71  55 S12G20    30.11S
SWEETWATER     MOSUNNY   94  60  32 E8        30.12S
BROWNWOOD      LGT RAIN  95  66  38 SE6G16    30.08S
COLEMAN        PTCLDY    93  65  39 S13       30.08F
SONORA         MOSUNNY   90  68  48 SE7G16    30.15S
OZONA          FAIR      91  61  35 S13G20    30.12F
BRADY          NOT AVBL
$$

TEXAS PANHANDLE/OKLAHOMA PANHANDLE

CITY           SKY/WX    TMP DP  RH WIND       PRES   REMARKS
AMARILLO       MOSUNNY   94  58  29 S15       30.11S
BORGER         MOSUNNY   97  60  29 S13G20    30.05F
CANADIAN       MOSUNNY   98  64  31 SW10G22   30.02F
DALHART        SUNNY     98  57  25 SW18G26   30.10F
DUMAS          CLEAR     94  60  31 S13G22    30.08F
GUYMON         NOT AVBL
HEREFORD       CLEAR     93  58  30 SW15G24   30.12F
PAMPA          PTCLDY    99  58  25 S18G26    30.08F
PERRYTON       MOSUNNY   97  62  31 S17G23    30.04F
$$

SOUTHERN PANHANDLE/SOUTH PLAINS/ROLLING PLAINS

CITY           SKY/WX    TMP DP  RH WIND       PRES   REMARKS
LUBBOCK        MOSUNNY   94  59  31 S14       30.12F
SNYDER         MOSUNNY   94  63  35 S9G18     30.10S
CHILDRESS      SUNNY     98  63  31 S13G22    30.04F
SEMINOLE       CLEAR     94  55  27 S13G20    30.13F
$$

PERMIAN BASIN

CITY           SKY/WX    TMP DP  RH WIND       PRES   REMARKS
MIDLAND        SUNNY     94  61  33 S12G20    30.10F
ODESSA         SUNNY     94  56  27 S15G24    30.11F
WINK           SUNNY     96  59  29 SE14G21   30.06F
$$

FAR WEST/SOUTHWEST MOUNTAINS/TRANS PECOS

CITY           SKY/WX    TMP DP  RH WIND       PRES   REMARKS
ALPINE         PTCLDY    87  58  37 CALM      30.24F
DRYDEN           N/A     93  68  43 SE12G24   30.06F
EL PASO        MOSUNNY   87  63  44 E5        30.14F
FORT STOCKTON  SUNNY     94  57  28 SE10      30.09F
GUADALUPE PASS SUNNY     85  63  47 SW17      30.27F
MARFA          SUNNY     86  58  38 NW5       30.23F
PECOS          CLEAR     96  61  30 SE8       30.05S
$$

DALLAS/FORT WORTH METROPLEX

CITY           SKY/WX    TMP DP  RH WIND       PRES   REMARKS
DFW AIRPORT    MOSUNNY   93  74  53 S14       30.04F
FTW MEACHAM    MOSUNNY   94  75  54 SE10      30.05F
DAL-EXECUTIVE  MOSUNNY   92  73  53 VRB7      30.06F
GRAND PRAIRIE  SUNNY     91  72  52 SE9       30.07F
ADDISON        MOSUNNY   91  72  52 S10       30.07F
MESQUITE       PTCLDY    91  72  52 SE8       30.07F
LANCASTER      PTCLDY    92  72  51 S7        30.07F
$$

NORTH CENTRAL TEXAS

CITY           SKY/WX    TMP DP  RH WIND       PRES   REMARKS
SHRMAN/DENISON PTCLDY    91  75  57 S9        30.07F
GAINESVILLE    MOSUNNY   91  75  60 SE9       30.07F
BRIDGEPORT     CLEAR     94  71  47 SE6       30.06F
DENTON         SUNNY     92  76  59 S13       30.05F
WAXAHACHIE     PTCLDY    93  73  52 S12       30.08F
GRANBURY       PTCLDY    96  70  42 S9        30.06F
$$

WESTERN NORTH TEXAS

CITY           SKY/WX    TMP DP  RH WIND       PRES   REMARKS
WICHITA FALLS  MOSUNNY   95  68  41 S10       30.02F
VERNON         CLEAR     96  60  30 SE8       30.03F
BRECKENRIDGE   PTCLDY    97  64  32 S8G17     30.05S HAZE
COMANCHE       SUNNY     94  70  46 SE8       30.08F
$$

CENTRAL AND SOUTH CENTRAL TEXAS

CITY           SKY/WX    TMP DP  RH WIND       PRES   REMARKS
AUSTIN/BERGSTM PTSUNNY   96  71  44 S13       30.06F
WACO           SUNNY     97  70  41 S16       30.06F
HILLSBORO      PTCLDY    93  73  51 S13G21    30.08S
TEMPLE         MOSUNNY   95  72  47 S16G22    30.07F
KILLEEN-GRAY   PTSUNNY   93  69  44 S8G18     30.07F
FORT HOOD      MOSUNNY   92  71  50 SE14      30.05F
GEORGETOWN     MOSUNNY   91  70  49 S14G20    30.07F
LAGO VISTA     MOCLDY    91  69  47 SW9       30.10F
SAN MARCOS     PTSUNNY   95  68  41 S10G21    30.08F
NEW BRAUNFELS  PTSUNNY   94  69  44 S14G21    30.06F
RANDOLPH AFB   PTSUNNY   93  68  44 S15       30.06F
SAN ANTONIO    PTSUNNY   96  69  41 SE16      30.07F
STINSON        MOSUNNY   99  69  37 SE14G22   30.04F
PLEASANTON     NOT AVBL
LA GRANGE      MOSUNNY   97  71  43 S6        30.05F
GIDDINGS       CLEAR     95  66  38 S8        30.09S
$$

EAST TEXAS

CITY           SKY/WX    TMP DP  RH WIND       PRES   REMARKS
PARIS            N/A     91  76  61 S9        30.09
CLARKSVILLE    NOT AVBL
TYLER          MOSUNNY   92  70  48 S8        30.10F
LONGVIEW       MOSUNNY   92  73  53 SW7       30.09F
PALESTINE      CLEAR     91  72  53 SW6G16    30.11F
NACOGDOCHES    MOSUNNY   91  73  55 S9        30.09F
$$

TEXAS HILL COUNTRY AND EDWARDS PLATEAU

CITY           SKY/WX    TMP DP  RH WIND       PRES   REMARKS
LLANO          PTCLDY    93  72  49 S10G16    30.11
HORSESHOE BAY  FAIR      94  68  42 SE14G21   30.08F
KERRVILLE      MOSUNNY   91  75  59 SE10G17   30.12S
FREDERICKSBRG  MOSUNNY   89  66  46 S8G16     30.12F
ROCKSPRINGS    NOT AVBL
HONDO          SUNNY     97  69  40 SE10G18   30.06F
UVALDE         CLEAR     95  68  40 S8G20     30.05F
DEL RIO        MOSUNNY   95  69  42 SE14G22   30.02F
$$

SOUTHEAST TEXAS

CITY           SKY/WX    TMP DP  RH WIND       PRES   REMARKS
COLLEGE STN    MOSUNNY   95  68  41 S9G20     30.08F
CALDWELL       NOT AVBL
CROCKETT       MOCLDY    90  75  62 SW5       30.13S
BRENHAM        MOSUNNY   97  67  37 S7        30.08F
HUNTSVILLE     MOSUNNY   92  69  47 CALM      30.10F
CONROE         MOSUNNY   94  71  47 S8        30.10S
HOUSTON BUSH   PTSUNNY   92  73  53 S12       30.09F
HOUSTON HOBBY  CLOUDY    92  75  57 SE14      30.09F
PERLAND        PTSUNNY   92  74  55 S8        30.11F
WHARTON        MOCLDY    94  67  41 SE12      30.09F
$$

THE UPPER TEXAS COAST

CITY           SKY/WX    TMP DP  RH WIND       PRES   REMARKS
ORANGE         CLOUDY    89  78  68 S8        30.14S
PORT ARTHUR    CLOUDY    91  74  57 S8        30.11F
GALVESTON      CLOUDY    88  78  72 SE12      30.12S
ANGLETON       CLOUDY    89  79  72 SE9       30.10F
BAY CITY       CLOUDY    90  76  65 S12       30.09F
$$

TEXAS COASTAL BEND, RIO GRANDE PLAINS DEEP SOUTH TEXAS

CITY           SKY/WX    TMP DP  RH WIND       PRES   REMARKS
VICTORIA       SUNNY     97  65  34 SE17G24   30.07S
BEEVILLE       MOCLDY    96  74  49 SE18      30.04F
ROCKPORT       MOSUNNY   92  74  55 SE14G22   30.07S
PORT ARANSAS   PTCLDY    89  77  66 SE12      30.08S
PORT LAVACA    PTCLDY    91  74  57 SE17      30.08S
CORPUS CHRISTI PTSUNNY   94  76  55 SE17G23   30.05S
KINGSVILLE NAS MOSUNNY   96  78  56 SE20G26   30.03F
COTULLA        MOSUNNY   96  66  37 SE8G17    30.01F
LAREDO         MOSUNNY  100  68  35 SE17G24   30.00F
BROWNSVILLE    PTSUNNY   93  76  57 SE20G28   30.05F
PORT ISABEL    MOSUNNY   94  78  60 SE22G29   30.04F
HEBBRONVILLE   PTCLDY    97  66  36 SE17      30.03F
MCALLEN        MOSUNNY  101  70  36 SE24      30.01F
WESLACO        MOSUNNY   98  71  41 S16G23    30.01F
FALFURRIAS     MOCLDY    96  69  40 SE13      30.01F
EDINBURG       MOCLDY   100  66  33 SE16G24   30.01F
$$




USA.gov is the U.S. government's official web portal to all federal, state and local government web resources and services.